SCP
0 0 0 0 0 1 1 1 1 1 1 1 1 1 1 1 1 1 0 0 0 0 0 0 0 0 0 0 -0 -0 -0 -0 -0 -0 -0 -0 -0 -0 -0 -0 -0 -0 -0
0 0 0 0 1 1 1 1 1 1 1 1 1 1 1 1 0 1 0 0 0 0 0 0 0 0 0 0 0 0 -0 -0 0 0 0 -0 -0 -0 -0 -0 -0 -0 -0
0 1 1 1 1 1 2 1 1 1 1 1 1 1 1 1 1 1 1 1 1 0 0 0 0 0 0 0 0 0 0 0 0 0 0 0 0 -0 -0 -0 -0 -0 -0
0 1 1 1 1 1 1 1 1 1 1 1 1 1 1 1 1 1 1 1 1 0 0 0 0 0 0 0 0 0 0 0 0 0 0 0 0 -0 -0 -0 -0 -0 -0
1 1 1 0 1 1 1 1 1 1 1 1 1 1 1 1 1 1 1 1 0 0 0 0 0 0 0 0 0 0 0 0 0 0 0 0 0 0 -0 -0 -0 -0 -0
1 1 1 1 1 1 1 1 1 1 1 1 1 1 1 1 1 1 1 1 0 0 0 0 0 0 0 0 0 0 0 0 0 0 0 0 0 0 0 -0 -0 -0 -0
1 1 1 1 1 1 1 1 1 1 1 1 1 1 1 1 1 1 1 1 0 0 0 0 0 0 0 0 0 0 0 0 0 0 0 0 0 0 0 0 -0 -0 -0
1 1 1 1 1 1 1 1 1 1 1 1 1 1 1 1 1 1 0 1 0 0 0 0 0 0 0 0 0 0 0 0 0 0 0 0 0 0 0 0 0 0 -0
1 1 1 1 1 1 1 1 1 1 1 1 1 1 1 1 1 1 0 1 0 0 0 0 0 0 0 0 0 0 0 0 0 0 0 0 0 0 0 0 0 0 0
2 1 1 1 1 1 1 1 1 1 1 1 1 1 1 1 1 0 0 0 0 0 0 0 0 0 0 0 0 0 0 0 0 0 0 0 0 0 0 0 0 0 0
2 2 2 1 1 1 1 1 0 1 1 1 1 0 0 1 0 0 0 0 0 0 0 0 0 0 0 0 0 0 0 0 0 0 0 0 0 0 0 0 0 0 0
2 2 2 2 1 1 1 1 1 0 0 0 0 0 0 0 0 0 0 0 0 0 0 0 0 0 0 0 0 0 0 0 0 0 0 0 0 0 0 0 0 0 0
2 2 2 2 2 1 1 1 0 0 0 0 0 0 0 0 0 0 0 0 0 0 0 0 0 0 0 0 0 0 0 0 0 0 0 0 0 0 0 0 0 0 0
2 2 2 2 2 2 1 1 0 0 0 0 0 0 0 0 0 0 0 0 0 0 0 0 0 0 0 0 0 0 0 0 0 0 0 0 0 0 0 0 0 0 0
1 2 2 2 2 2 1 1 0 0 0 0 0 0 0 0 0 0 0 0 0 0 0 0 0 0 0 0 0 0 0 0 0 0 0 0 0 0 0 0 0 0 0
1 2 3 2 2 2 2 1 0 0 0 0 0 0 0 0 0 0 0 0 0 0 0 0 0 0 0 0 0 0 0 0 0 0 0 0 0 0 0 0 0 0 0
2 2 3 3 2 2 2 1 0 0 0 0 0 0 0 0 0 0 0 0 0 0 0 0 0 0 0 0 0 0 0 0 0 0 0 0 0 0 0 0 0 0 0
1 1 2 3 2 2 1 1 0 0 0 0 0 0 0 0 0 0 0 0 0 0 0 0 0 0 0 0 0 0 0 0 0 0 0 0 0 0 0 0 0 0 0
0 1 2 3 2 2 2 1 0 0 0 0 0 0 0 0 0 0 0 0 0 0 0 0 0 0 0 0 0 0 0 0 0 0 0 0 0 0 0 0 0 0 0
0 1 1 2 2 2 2 1 1 0 0 0 0 0 0 0 0 0 0 0 0 0 0 0 0 0 0 0 0 0 0 0 0 0 0 0 0 0 0 0 0 0 0
0 0 1 1 1 2 1 0 0 0 0 0 0 0 0 0 0 0 0 0 0 0 0 0 0 0 0 0 0 0 0 0 0 0 0 0 0 0 0 0 0 0 0
-0 0 1 1 1 1 1 0 0 0 0 0 0 0 0 0 0 0 0 0 0 0 0 0 0 0 0 0 0 0 0 0 0 0 0 0 0 0 0 0 0 0 0
0 0 1 1 1 1 1 0 0 0 0 0 0 0 0 0 0 0 0 0 0 0 0 0 0 0 0 0 0 0 0 0 0 0 0 0 0 0 0 0 0 0 0
0 0 0 1 1 1 1 0 0 0 0 0 0 0 0 0 0 0 0 0 0 0 0 0 0 0 0 0 0 0 0 0 0 0 0 0 0 0 0 0 0 0 0
0 0 0 1 1 2 1 1 0 0 0 0 0 0 0 0 0 0 0 0 0 0 0 0 0 0 0 0 0 0 0 0 0 0 0 0 0 0 0 0 0 0 0
0 0 0 1 2 2 1 1 1 0 0 0 0 0 0 0 0 0 0 0 0 0 0 0 0 0 0 0 0 0 0 0 0 0 0 0 0 0 0 0 0 0 0
Wind_Speed_500mb
37 58 52 48 52 52 54 58 63 65 66 66 68 64 57 54 50 46 44 39 36 37 37 38 36 33 29 27 24 24 21 26 27 27 28 30 30 29 31 29 29 31 31
41 54 47 51 57 60 58 62 66 67 66 65 65 62 57 53 52 50 45 42 41 40 39 36 36 32 29 29 29 25 28 30 28 28 28 28 29 29 29 28 26 27 27
35 51 48 52 59 67 67 68 69 69 66 66 66 63 59 55 53 50 47 46 46 44 44 40 36 33 31 33 31 31 33 30 28 29 29 26 27 26 26 25 24 23 23
24 36 43 49 59 68 68 68 71 70 67 65 67 65 61 58 54 51 48 48 46 45 45 36 36 35 33 33 32 36 34 31 29 27 25 23 23 23 24 23 22 20 20
19 27 39 41 51 67 69 68 71 71 68 65 65 65 62 59 56 53 50 47 44 42 44 36 36 36 36 36 38 38 35 32 30 23 23 21 21 23 20 21 20 18 18
31 34 33 40 50 64 70 69 71 72 70 67 65 64 63 61 58 54 52 48 43 46 43 35 35 37 36 41 40 38 37 35 30 21 18 21 17 20 17 16 15 14 14
37 41 40 39 47 62 70 72 73 73 72 71 67 65 65 63 60 56 54 49 48 50 40 38 39 39 42 43 41 40 37 37 33 32 25 23 19 15 11 9 8 8 8
32 35 43 42 46 60 71 73 74 75 74 74 71 69 68 67 64 61 56 54 56 49 40 39 42 43 42 42 41 39 35 31 26 25 20 16 10 11 10 8 7 6 7
38 39 42 45 49 62 72 73 74 75 76 75 74 72 72 69 65 63 61 57 56 45 44 44 45 45 43 41 40 36 33 28 24 20 17 13 11 9 10 11 11 12 13
48 48 44 49 52 66 72 73 73 74 77 77 76 74 72 70 68 66 63 61 55 52 44 47 47 45 42 40 38 35 33 28 25 21 19 16 12 10 11 11 11 12 13
51 55 53 53 55 66 73 74 71 73 77 79 79 77 72 69 69 65 64 65 59 50 47 50 47 44 43 40 37 34 31 27 25 21 19 15 12 11 9 9 9 9 9
61 61 60 56 54 64 73 73 75 74 74 79 83 81 77 78 76 73 68 62 53 50 55 53 49 46 42 39 38 36 32 28 24 20 17 15 13 12 11 10 10 9 8
60 57 59 64 60 68 76 78 78 76 79 82 83 82 82 77 75 75 68 60 56 59 59 55 52 47 42 39 38 36 32 28 24 22 19 17 15 13 12 10 9 8 8
62 59 63 72 69 67 80 82 83 83 83 84 86 85 86 85 77 71 72 62 60 60 55 52 48 45 43 40 36 33 30 27 24 22 19 17 15 13 12 10 10 10 9
73 72 69 71 73 73 82 89 90 89 87 92 88 83 85 65 70 78 70 68 65 55 54 52 48 45 42 40 37 32 28 25 23 21 19 17 14 13 13 12 12 12 9
80 78 76 78 76 80 81 88 91 92 91 88 86 82 85 81 83 77 71 68 66 65 58 50 47 44 41 39 36 33 29 27 25 22 20 17 15 14 14 13 14 13 10
79 83 75 74 77 78 84 84 92 92 94 86 83 79 75 74 70 65 68 69 65 62 57 55 51 46 43 41 37 33 30 28 25 23 21 19 17 16 17 15 16 15 13
51 64 70 74 82 81 83 82 90 96 93 92 84 85 82 75 62 56 66 67 66 65 60 58 54 49 46 40 37 35 32 29 27 25 24 22 20 20 20 19 17 17 15
51 60 68 73 79 82 81 84 86 93 93 87 76 78 71 70 71 67 64 67 68 66 63 59 56 50 48 43 38 35 33 31 30 29 28 26 25 24 23 21 19 18 17
60 46 61 72 75 80 83 83 88 92 88 85 81 89 76 69 69 62 65 69 70 68 65 61 57 53 46 43 41 38 36 34 34 33 32 31 29 26 25 23 20 20 20
69 78 51 61 73 75 81 87 89 95 99 91 93 89 80 75 77 72 68 70 71 70 67 63 60 55 55 50 47 43 39 39 38 37 35 34 33 29 28 26 23 22 22
58 59 72 62 68 74 81 83 91 92 94 102 98 96 86 78 75 73 76 74 73 71 69 68 67 66 60 58 54 42 28 39 45 43 42 40 37 34 31 29 26 25 25
70 64 55 64 72 73 77 74 75 86 83 89 95 95 99 88 77 68 72 75 77 73 72 72 71 69 68 64 58 34 18 22 42 50 49 46 41 38 35 33 29 28 28
76 70 67 63 74 78 75 73 76 80 90 95 95 92 96 92 85 79 74 76 78 78 78 74 72 71 69 68 68 64 37 16 22 20 47 48 45 41 38 34 29 29 29
65 59 69 67 71 83 84 79 78 87 94 95 89 87 94 96 91 86 81 78 76 75 77 77 75 74 75 73 71 70 64 47 30 20 17 34 39 38 38 34 33 33 33
61 58 57 68 80 84 82 80 78 83 87 91 84 84 95 105 95 93 88 84 78 78 76 76 78 78 77 75 72 71 65 62 58 50 39 32 34 37 38 39 39 38 36
Wind_Direction_500mb
243 210 207 200 198 196 193 190 189 183 179 177 179 181 183 183 183 184 182 181 179 175 171 167 164 163 157 152 145 138 130 130 121 110 107 107 103 102 102 113 113 105 105
238 208 206 207 199 197 196 192 190 186 183 181 179 179 179 182 183 183 183 183 181 175 173 171 167 164 158 154 146 141 138 135 124 117 111 110 106 104 103 106 118 115 108
210 206 205 206 202 198 195 191 191 189 186 184 183 181 179 182 181 181 181 181 180 177 171 165 162 162 160 157 150 148 145 139 127 120 114 111 108 105 105 107 108 116 117
210 217 210 206 203 202 200 195 192 190 188 187 187 185 184 183 183 181 181 181 180 179 179 175 172 165 163 157 154 148 146 139 132 122 120 116 110 105 108 111 110 111 114
196 213 216 214 206 203 201 199 195 192 191 189 189 189 187 186 186 183 182 183 184 182 181 173 169 167 166 161 153 151 151 143 134 130 130 120 120 114 115 114 114 116 118
233 232 216 216 214 208 203 198 197 194 193 193 192 191 190 189 187 187 184 185 186 182 182 177 174 169 165 158 157 159 154 145 136 151 151 137 144 139 129 118 126 127 131
220 223 219 222 221 212 205 198 196 196 195 195 194 193 192 193 188 189 188 186 185 182 181 181 174 170 163 161 161 163 160 159 161 163 168 168 171 145 139 140 141 149 158
216 224 220 222 223 214 206 199 196 197 197 197 196 194 195 195 191 189 192 189 185 186 185 182 175 168 164 163 165 170 171 175 180 187 186 182 181 159 177 185 192 192 187
229 227 226 223 221 214 204 201 198 197 198 199 198 198 196 196 194 191 194 192 188 189 183 179 174 169 168 169 173 178 183 188 195 200 207 212 217 213 212 218 221 218 216
236 232 231 226 218 208 205 203 202 200 199 200 200 200 197 196 196 193 194 193 190 187 183 177 175 174 175 178 181 187 192 193 199 206 216 219 212 213 211 215 216 218 221
224 222 226 224 212 208 206 202 203 203 202 200 202 199 197 196 195 196 197 193 193 181 182 179 178 180 180 182 185 196 198 203 210 212 211 207 199 198 198 210 221 228 226
220 217 223 223 214 207 208 206 202 203 205 203 201 199 195 195 196 197 198 197 188 182 183 183 183 184 187 192 194 201 203 204 205 204 197 199 198 204 208 217 226 235 236
226 221 220 218 213 204 207 205 207 203 206 207 202 198 196 195 197 196 195 188 187 182 185 185 185 189 194 197 199 197 195 195 196 198 200 204 207 214 220 222 234 242 241
222 224 219 219 215 216 212 210 208 207 205 207 202 202 200 198 198 197 193 186 186 185 189 190 192 194 193 192 195 196 193 196 198 204 207 211 212 214 220 224 236 246 247
232 221 219 221 218 221 219 214 210 208 207 206 206 206 201 184 204 202 190 191 185 194 193 194 195 194 191 190 193 197 199 200 206 209 214 212 213 224 235 244 245 247 241
240 229 222 222 222 216 223 220 215 211 210 212 203 200 199 197 196 193 189 190 189 189 194 197 196 194 193 193 195 199 201 204 209 210 211 212 214 230 246 255 257 259 243
248 235 226 221 222 219 220 220 218 211 215 213 203 197 209 204 202 206 196 193 192 191 192 192 193 194 196 195 196 201 206 208 210 213 214 212 214 224 238 244 249 254 251
263 239 230 228 227 223 222 221 220 218 214 215 207 203 205 206 199 218 198 197 195 195 194 194 195 195 199 200 200 201 207 211 213 216 217 217 219 226 232 235 240 244 246
262 238 230 227 226 224 227 221 222 222 218 218 212 206 208 209 207 206 202 201 201 198 197 197 197 202 201 201 203 206 207 210 215 218 221 222 224 227 234 237 236 236 233
254 258 233 228 225 226 227 225 227 222 219 217 216 210 210 213 219 212 207 205 204 202 200 201 202 199 205 206 203 207 210 213 218 220 225 229 231 235 239 243 243 241 234
256 254 246 228 225 223 221 219 211 219 214 215 212 213 210 215 214 216 210 209 208 207 207 205 202 204 198 200 201 202 209 215 220 223 226 233 238 238 241 244 245 245 244
255 246 243 231 226 223 223 221 217 222 221 217 214 214 212 212 214 218 216 209 211 211 209 208 208 202 206 205 202 203 210 221 224 225 227 230 235 240 241 243 244 245 244
253 249 244 234 229 227 224 221 224 226 227 210 218 219 212 210 211 215 221 216 211 214 216 213 212 212 212 207 208 205 196 216 217 225 228 232 234 238 240 244 244 241 240
247 247 251 243 231 229 222 225 226 229 212 220 221 216 220 213 208 210 214 224 220 215 213 219 219 218 217 218 211 213 215 203 193 204 226 231 235 238 238 236 235 243 245
246 250 252 248 238 228 221 225 232 226 226 225 221 218 221 218 210 210 213 214 224 224 221 219 219 222 222 222 224 222 220 226 222 221 213 223 229 231 229 234 236 240 244
253 253 264 245 238 225 219 222 227 228 222 227 224 218 219 217 212 214 216 217 219 223 228 226 224 224 227 228 228 233 234 233 237 235 235 232 233 235 235 236 242 244 248
Wind_Speed_850mb
37 58 52 48 52 52 54 58 63 65 66 66 68 64 57 54 50 46 44 39 36 37 37 38 36 33 29 27 24 24 21 26 27 27 28 30 30 29 31 29 29 31 31
41 54 47 51 57 60 58 62 66 67 66 65 65 62 57 53 52 50 45 42 41 40 39 36 36 32 29 29 29 25 28 30 28 28 28 28 29 29 29 28 26 27 27
35 51 48 52 59 67 67 68 69 69 66 66 66 63 59 55 53 50 47 46 46 44 44 40 36 33 31 33 31 31 33 30 28 29 29 26 27 26 26 25 24 23 23
24 36 43 49 59 68 68 68 71 70 67 65 67 65 61 58 54 51 48 48 46 45 45 36 36 35 33 33 32 36 34 31 29 27 25 23 23 23 24 23 22 20 20
19 27 39 41 51 67 69 68 71 71 68 65 65 65 62 59 56 53 50 47 44 42 44 36 36 36 36 36 38 38 35 32 30 23 23 21 21 23 20 21 20 18 18
31 34 33 40 50 64 70 69 71 72 70 67 65 64 63 61 58 54 52 48 43 46 43 35 35 37 36 41 40 38 37 35 30 21 18 21 17 20 17 16 15 14 14
37 41 40 39 47 62 70 72 73 73 72 71 67 65 65 63 60 56 54 49 48 50 40 38 39 39 42 43 41 40 37 37 33 32 25 23 19 15 11 9 8 8 8
32 35 43 42 46 60 71 73 74 75 74 74 71 69 68 67 64 61 56 54 56 49 40 39 42 43 42 42 41 39 35 31 26 25 20 16 10 11 10 8 7 6 7
38 39 42 45 49 62 72 73 74 75 76 75 74 72 72 69 65 63 61 57 56 45 44 44 45 45 43 41 40 36 33 28 24 20 17 13 11 9 10 11 11 12 13
48 48 44 49 52 66 72 73 73 74 77 77 76 74 72 70 68 66 63 61 55 52 44 47 47 45 42 40 38 35 33 28 25 21 19 16 12 10 11 11 11 12 13
51 55 53 53 55 66 73 74 71 73 77 79 79 77 72 69 69 65 64 65 59 50 47 50 47 44 43 40 37 34 31 27 25 21 19 15 12 11 9 9 9 9 9
61 61 60 56 54 64 73 73 75 74 74 79 83 81 77 78 76 73 68 62 53 50 55 53 49 46 42 39 38 36 32 28 24 20 17 15 13 12 11 10 10 9 8
60 57 59 64 60 68 76 78 78 76 79 82 83 82 82 77 75 75 68 60 56 59 59 55 52 47 42 39 38 36 32 28 24 22 19 17 15 13 12 10 9 8 8
62 59 63 72 69 67 80 82 83 83 83 84 86 85 86 85 77 71 72 62 60 60 55 52 48 45 43 40 36 33 30 27 24 22 19 17 15 13 12 10 10 10 9
73 72 69 71 73 73 82 89 90 89 87 92 88 83 85 65 70 78 70 68 65 55 54 52 48 45 42 40 37 32 28 25 23 21 19 17 14 13 13 12 12 12 9
80 78 76 78 76 80 81 88 91 92 91 88 86 82 85 81 83 77 71 68 66 65 58 50 47 44 41 39 36 33 29 27 25 22 20 17 15 14 14 13 14 13 10
79 83 75 74 77 78 84 84 92 92 94 86 83 79 75 74 70 65 68 69 65 62 57 55 51 46 43 41 37 33 30 28 25 23 21 19 17 16 17 15 16 15 13
51 64 70 74 82 81 83 82 90 96 93 92 84 85 82 75 62 56 66 67 66 65 60 58 54 49 46 40 37 35 32 29 27 25 24 22 20 20 20 19 17 17 15
51 60 68 73 79 82 81 84 86 93 93 87 76 78 71 70 71 67 64 67 68 66 63 59 56 50 48 43 38 35 33 31 30 29 28 26 25 24 23 21 19 18 17
60 46 61 72 75 80 83 83 88 92 88 85 81 89 76 69 69 62 65 69 70 68 65 61 57 53 46 43 41 38 36 34 34 33 32 31 29 26 25 23 20 20 20
69 78 51 61 73 75 81 87 89 95 99 91 93 89 80 75 77 72 68 70 71 70 67 63 60 55 55 50 47 43 39 39 38 37 35 34 33 29 28 26 23 22 22
58 59 72 62 68 74 81 83 91 92 94 102 98 96 86 78 75 73 76 74 73 71 69 68 67 66 60 58 54 42 28 39 45 43 42 40 37 34 31 29 26 25 25
70 64 55 64 72 73 77 74 75 86 83 89 95 95 99 88 77 68 72 75 77 73 72 72 71 69 68 64 58 34 18 22 42 50 49 46 41 38 35 33 29 28 28
76 70 67 63 74 78 75 73 76 80 90 95 95 92 96 92 85 79 74 76 78 78 78 74 72 71 69 68 68 64 37 16 22 20 47 48 45 41 38 34 29 29 29
65 59 69 67 71 83 84 79 78 87 94 95 89 87 94 96 91 86 81 78 76 75 77 77 75 74 75 73 71 70 64 47 30 20 17 34 39 38 38 34 33 33 33
61 58 57 68 80 84 82 80 78 83 87 91 84 84 95 105 95 93 88 84 78 78 76 76 78 78 77 75 72 71 65 62 58 50 39 32 34 37 38 39 39 38 36
Wind_Direction_850mb
243 210 207 200 198 196 193 190 189 183 179 177 179 181 183 183 183 184 182 181 179 175 171 167 164 163 157 152 145 138 130 130 121 110 107 107 103 102 102 113 113 105 105
238 208 206 207 199 197 196 192 190 186 183 181 179 179 179 182 183 183 183 183 181 175 173 171 167 164 158 154 146 141 138 135 124 117 111 110 106 104 103 106 118 115 108
210 206 205 206 202 198 195 191 191 189 186 184 183 181 179 182 181 181 181 181 180 177 171 165 162 162 160 157 150 148 145 139 127 120 114 111 108 105 105 107 108 116 117
210 217 210 206 203 202 200 195 192 190 188 187 187 185 184 183 183 181 181 181 180 179 179 175 172 165 163 157 154 148 146 139 132 122 120 116 110 105 108 111 110 111 114
196 213 216 214 206 203 201 199 195 192 191 189 189 189 187 186 186 183 182 183 184 182 181 173 169 167 166 161 153 151 151 143 134 130 130 120 120 114 115 114 114 116 118
233 232 216 216 214 208 203 198 197 194 193 193 192 191 190 189 187 187 184 185 186 182 182 177 174 169 165 158 157 159 154 145 136 151 151 137 144 139 129 118 126 127 131
220 223 219 222 221 212 205 198 196 196 195 195 194 193 192 193 188 189 188 186 185 182 181 181 174 170 163 161 161 163 160 159 161 163 168 168 171 145 139 140 141 149 158
216 224 220 222 223 214 206 199 196 197 197 197 196 194 195 195 191 189 192 189 185 186 185 182 175 168 164 163 165 170 171 175 180 187 186 182 181 159 177 185 192 192 187
229 227 226 223 221 214 204 201 198 197 198 199 198 198 196 196 194 191 194 192 188 189 183 179 174 169 168 169 173 178 183 188 195 200 207 212 217 213 212 218 221 218 216
236 232 231 226 218 208 205 203 202 200 199 200 200 200 197 196 196 193 194 193 190 187 183 177 175 174 175 178 181 187 192 193 199 206 216 219 212 213 211 215 216 218 221
224 222 226 224 212 208 206 202 203 203 202 200 202 199 197 196 195 196 197 193 193 181 182 179 178 180 180 182 185 196 198 203 210 212 211 207 199 198 198 210 221 228 226
220 217 223 223 214 207 208 206 202 203 205 203 201 199 195 195 196 197 198 197 188 182 183 183 183 184 187 192 194 201 203 204 205 204 197 199 198 204 208 217 226 235 236
226 221 220 218 213 204 207 205 207 203 206 207 202 198 196 195 197 196 195 188 187 182 185 185 185 189 194 197 199 197 195 195 196 198 200 204 207 214 220 222 234 242 241
222 224 219 219 215 216 212 210 208 207 205 207 202 202 200 198 198 197 193 186 186 185 189 190 192 194 193 192 195 196 193 196 198 204 207 211 212 214 220 224 236 246 247
232 221 219 221 218 221 219 214 210 208 207 206 206 206 201 184 204 202 190 191 185 194 193 194 195 194 191 190 193 197 199 200 206 209 214 212 213 224 235 244 245 247 241
240 229 222 222 222 216 223 220 215 211 210 212 203 200 199 197 196 193 189 190 189 189 194 197 196 194 193 193 195 199 201 204 209 210 211 212 214 230 246 255 257 259 243
248 235 226 221 222 219 220 220 218 211 215 213 203 197 209 204 202 206 196 193 192 191 192 192 193 194 196 195 196 201 206 208 210 213 214 212 214 224 238 244 249 254 251
263 239 230 228 227 223 222 221 220 218 214 215 207 203 205 206 199 218 198 197 195 195 194 194 195 195 199 200 200 201 207 211 213 216 217 217 219 226 232 235 240 244 246
262 238 230 227 226 224 227 221 222 222 218 218 212 206 208 209 207 206 202 201 201 198 197 197 197 202 201 201 203 206 207 210 215 218 221 222 224 227 234 237 236 236 233
254 258 233 228 225 226 227 225 227 222 219 217 216 210 210 213 219 212 207 205 204 202 200 201 202 199 205 206 203 207 210 213 218 220 225 229 231 235 239 243 243 241 234
256 254 246 228 225 223 221 219 211 219 214 215 212 213 210 215 214 216 210 209 208 207 207 205 202 204 198 200 201 202 209 215 220 223 226 233 238 238 241 244 245 245 244
255 246 243 231 226 223 223 221 217 222 221 217 214 214 212 212 214 218 216 209 211 211 209 208 208 202 206 205 202 203 210 221 224 225 227 230 235 240 241 243 244 245 244
253 249 244 234 229 227 224 221 224 226 227 210 218 219 212 210 211 215 221 216 211 214 216 213 212 212 212 207 208 205 196 216 217 225 228 232 234 238 240 244 244 241 240
247 247 251 243 231 229 222 225 226 229 212 220 221 216 220 213 208 210 214 224 220 215 213 219 219 218 217 218 211 213 215 203 193 204 226 231 235 238 238 236 235 243 245
246 250 252 248 238 228 221 225 232 226 226 225 221 218 221 218 210 210 213 214 224 224 221 219 219 222 222 222 224 222 220 226 222 221 213 223 229 231 229 234 236 240 244
253 253 264 245 238 225 219 222 227 228 222 227 224 218 219 217 212 214 216 217 219 223 228 226 224 224 227 228 228 233 234 233 237 235 235 232 233 235 235 236 242 244 248